Overview Statistics Trail Chart Weather Telemetry Raw packets
 

This is the latest recevied weather packets stored in our database for station/object K5SVV. If no packets are shown the sender has not sent any weather packets the latest 10 day(s).

<< 107 108 109 110 111 112 113 >>
Time Temp. Humidity Pressure Rain* Wind** Luminosity Snow
1787880191 32.22° C 47% 1013.1 hPa 0 mm - 0 W/m² -
1787879886 32.78° C 47% 1013 hPa 0 mm - 0 W/m² -
1787879582 32.78° C 46% 1012.9 hPa 0 mm - 0 W/m² -
1787879277 32.78° C 46% 1012.9 hPa 0 mm - 0 W/m² -
1787878974 33.33° C 46% 1012.6 hPa 0 mm - 0 W/m² -
1787878673 33.33° C 46% 1012.4 hPa 0 mm - 2 W/m² -
1787878368 33.33° C 45% 1012.6 hPa 0 mm - 3 W/m² -
1787878064 33.89° C 45% 1012.5 hPa 0 mm - 6 W/m² -
1787877759 33.89° C 44% 1012.3 hPa 0 mm - 10 W/m² -
1787877454 33.89° C 44% 1012.1 hPa 0 mm - 13 W/m² -
1787877151 33.89° C 44% 1012.2 hPa 0 mm - 15 W/m² -
1787876850 34.44° C 44% 1012.2 hPa 0 mm - 16 W/m² -
1787876545 34.44° C 45% 1012.3 hPa 0 mm - 16 W/m² -
1787876244 34.44° C 44% 1012 hPa 0 mm - 14 W/m² -
1787875939 35° C 44% 1012.5 hPa 0 mm - 17 W/m² -
1787875633 35° C 44% 1012.1 hPa 0 mm - 20 W/m² -
1787875332 35° C 43% 1012.4 hPa 0 mm - 24 W/m² -
1787875031 35.56° C 42% 1012.2 hPa 0 mm - 30 W/m² -
1787874727 35.56° C 42% 1012 hPa 0 mm - 40 W/m² -
1787874424 36.11° C 42% 1012.4 hPa 0 mm - 72 W/m² -
1787874120 36.11° C 42% 1012.1 hPa 0 mm - 97 W/m² -
1787873820 36.11° C 42% 1012.1 hPa 0 mm - 55 W/m² -
1787873514 36.11° C 41% 1011.9 hPa 0 mm - 136 W/m² -
1787873209 36.11° C 42% 1012.2 hPa 0 mm - 147 W/m² -
1787872908 36.67° C 40% 1012 hPa 0 mm - 166 W/m² -

* Rain latest hour (hover to see other rain measurements)
** Current wind speed in m/s (hover to see current wind gust speed)